Погода в Пинске

Погода в Пинске : погода сейчас, прогноз погоды и архив. Всё, что Вы хотите узнать о погоде в Пинске!

Хотите узнать прогноз погоды в Пинске? Тогда Вам сюда: Погода в Пинске

Поиск расширенной информации на нашем сайте:

Другие новости

Новости СМИ2

Главная страница сайта

Новости сайта

02.10.2013

Напоминаем, что на нашем новом сайте вы можете получить высокодетализированные прогнозы погоды по пунктам России, СНГ и мира (включающие важные для авиации метеовеличины, такие как направление и скорость ветра, видимость, явления погоды, количество и форма облачности, нижняя и верхняя граница облачности), а также ознакомиться с разнообразными материалами по авиационной метеорологии и подборкой полезных ссылок на эту тему.

Сайт Метеоцентр.Азия посвящён разработке технологий оптимизации авиаметеорологического обслуживания, включая проектирование и перспективное создание нескольких автоматизированных авиаметеорологических систем:
- система выпуска высокодетальных прогностических карт явлений погоды для нижнего воздушного пространства по России и ближнему зарубежью;
- система верификации прогнозов TAF (выпускаемых синоптиками официальных АМСГ РФ и ближнего зарубежья) и AUTOTAF (выпускаемых сайтом Метеоцентр.Азия) - выявление ошибок, онлайн-сопоставление с фактической погодой METAR, автоматическое внесение коррективов в прогнозы при резком отклонении фактической погоды от прогноза, подсчёт оправдываемости прогнозов по элементам и в целом;
- система обработки, анализа и отображения авиаметеорологической информации для применения провайдерами метеорологической информации.


Погода в Пинске - сегодня

Время (UTC), дата Ветер
(°,м/с) 
Видим.   Явления Облачность Т
(°С)
Тd
(°С)
f(%) Тe
(°С)
Pmin
(гПа)
dP
(гПа)
Po
(мм)
O2
(г/м3)
Тmin Tmax R s Состояние
почвы
18 23.03.17 040 (СВ) 10 км    9/9 600 м 
[Sc]
+8.9 -0.9 50 +9  1023.4  -0.5  755  295    +11.9       
21 23.03.17 020 (С) 10 км    9/9 600 м 
[Sc]
+8 +0.2 58 +8  1022.3  -1.2  754  295           
00 24.03.17 010 (С) 10 км  в посл. час дождь  10/10 300 м 
[St]
+6 +3.4 83 +6  1020.4  -2  752  296           
03 24.03.17 010 (С) 6000 м  слаб. дождь  10/10 300 м 
[Frnb|Ns]
+5 +4.1 94 +5  1019.1  -1.2  751  297         
06 24.03.17 310 (СЗ) 3600 м  в посл. час морось{дождь}  10/10 200 м 
[St]
+4.7 +4.2 97 +4  1018.8  -0.3  751  297  +4.6       
09 24.03.17 300 (СЗ) 6000 м  дымка  10/10 300 м 
[St]
+5.2 +4.3 94 +5  1021.6  2.7  753  297           
12 24.03.17 280 (З) 10 км    10/6 600 м средняя 
[Sc|Ac trans]
+8.3 +3.6 72 +7  1022.7  1.3  754  294           
15 24.03.17 270 (З) 10 км  в посл. час ливневой дождь  10/10 300 м кучево-дожд. 
[Cb calv]
+7.8 +3 72 +7  1023.5  0.7  755  295      0.0     
18 24.03.17 260 (З) 10 км  {ливн. осадки}  ясно 
+6.5 -0.9 59 +6  1025.2  1.6  756  298    +10.4  0.0     
21 24.03.17 250 (З) 10 км    ясно 
+3.4 -3 63 +4  1026.6  1.2  757  301           
00 25.03.17 260 (З) 10 км    ясно 
+0.6 -3.4 75 +1  1027.4  0.6  757  305           
03 25.03.17 250 (З) 10 км    ясно 
-1.5 -3.7 85 -1  1026.6  -1  756  307           
06 25.03.17 210 (ЮЗ) 10 км    9/0 средняя 
[Ac trans]
-0.2 -2.9 82 -1  1025.4  -1  756  305  -1.8         
09 25.03.17 210 (ЮЗ) 10 км    9/9 600 м 
[Sc]
+3.9 -3 61 +3  1024.1  -1  755  300           
12 25.03.17 170 (Ю) 10 км    9/9 1000 м 
[Sc]
+6.4 -3.1 51 +5  1019.9  -4  752  296           
15 25.03.17 200 (Ю) 4{10}  10 км    10/10 300 м 
[St]
+6.2 -1.3 59 +5  1016.4  -3.5  749  295           
18 25.03.17 210 (ЮЗ) 2{10}  8000 м  слаб. дождь  10/10 200 м 
[Frnb|Ns]
+2.2 +0.9 91 +2  1015.7  -1  748  299    +7.2  0.6     
21 25.03.17 220 (ЮЗ) 3700 м  дымка{дождь}  10/10 200 м 
[St]
+2.2 +1.7 96 +3  1014.3  -1.3  747  298           
00 26.03.17 300 (СЗ) 6000 м  в посл. час дождь  10/10 300 м 
[St]
+1.7 +0.9 94 1015.6  1.2  748  300           
03 26.03.17 320 (СЗ) 7000 м  дымка  9/9 600 м 
[Sc]
+1.3 +0.2 92 1017.7  2.1  750  301         
06 26.03.17 300 (СЗ) 8000 м  дымка  9/9 600 м 
[Sc]
+1.7 +0.3 90 +1  1020.4  2.6  752  301  +0.8       
09 26.03.17 300 (СЗ) 10 км    9/9 600 м 
[Sc]
+3.1 -1 74 +1  1022.3  2.1  753  300           
12 26.03.17 290 (З) 10 км    9/9 600 м 
[Sc]
+4.3 -1.2 67 +3  1023.1  0.8  754  299           
15 26.03.17 230 (ЮЗ) 10 км    9/9 600 м 
[Sc]
+4.1 -2.1 64 +3  1022.9  -0.2  754  300           
18 26.03.17 230 (ЮЗ) 10 км    8/8 1000 м 
[Sc]
+2.1 -2.2 73 +1  1023  754  302    +4.5       
Время (UTC), дата Ветер
(°,м/с) 
Видим.   Явления Облачность Т
(°С)
Тd
(°С)
f(%) Тe
(°С)
Pmin
(гПа)
dP
(гПа)
Po
(мм)
O2
(г/м3)
Тmin Tmax R s Состояние
почвы

Для получения пояснительной информации подведите курсор к названию столбца.

ПОГОДА в Пинске - архив

Всё, что Вы хотите узнать о погоде в Пинске - удобно и подробно!

Выберите нужную дату (начиная с 1 января 2015* года) и нажмите кнопку "Найти".
Будут отображены архивные сводки погоды по пункту Пинск, начиная с указанной даты.


Отображать данные в формате CSV (для использования в таблицах Excel)


Внимание! Наш архив погоды предназначен исключительно для личного некоммерческого использования в познавательных целях. Если Вам необходимы официальные справки о состоянии погоды (для производственных, юридических, коммерческих и т.п. целей), обращайтесь в органы Росгидромета.

*Примечание: данная дата относится к архиву по метеостанциям СССР (Россия, СНГ, Балтия).
Архив по метеостанциям Зарубежной Европы и Азии (кроме Китая) хранится 10 дней, по другим регионам земного шара (Китай, Африка, Америка, Австралия, Океания) - 1 день.

Пинск - район местоположения метеостанции


Название, широта, долгота, высота метеостанции:
Пинск 52.1°ш. 26.1°д. 142 м над ур. моря [Беларусь]

Дополнительная информация

В oтличие oт бoльшинства пoгoдных сайтoв мы публикуем пoдрoбную метеoинфoрмацию в детальнoм прoфессиoнальнoм фoрмате.

Характеристики температуры и влажнoсти вoздуха измеряются на высoте 2 м в тени вдали oт зданий и деревьев.
Скoрoсть ветра измеряется на высoте 10 м (на урoвне рoста челoвека скoрoсть ветра ниже в 1.5-2 раза). Если метеoстанция нахoдится в гoрoде или в лесу, тo скoрoсть ветра занижена на 2-4 м/с пo сравнению с oткрытым местoм. Скoрoсть ветра над акватoриями крупных рек и oзёр, а также на вершинах хoлмoв на 2-5 м/с выше, чем в oбычных услoвиях.
Атмoсфернoе давление в разных тoчках местнoсти мoжет значительнo oтличаться oт давления на метеoстанции, в зависимoсти oт услoвий рельефа (при пoдъёме на 10 м давление пoнижается примернo на 1 мм рт.ст.).